Wind_Speed
135 136 137 137 138 138 138 138 138 137 136 136 136 135 135 135 135 135 135 134 134 134 134 133 132 131 130 129 128 127 125 124 122 121 119 118 117 116 116 115 115 114 114 113 112 111 109 108 106 104 103 101 99 98 96 95 94 92 91 89 87 85 84 82 81 80 78 77 76 75 74 73 72 71 70 68 68 67 66 66 65 65 65 65 65 65
136 137 138 138 139 139 139 139 138 137 137 136 136 136 135 135 135 135 135 135 135 134 134 133 132 131 130 129 128 126 125 123 122 120 119 118 117 117 116 116 115 115 114 113 111 110 108 106 105 103 101 100 98 97 95 93 92 90 89 87 85 83 81 80 78 77 76 74 73 72 71 71 70 69 68 67 66 65 65 64 64 63 63 63 63 62
137 138 139 139 139 139 139 139 138 138 137 136 136 136 136 136 136 136 136 136 135 135 134 133 132 131 130 129 128 126 124 123 122 120 119 119 118 117 117 116 116 115 114 112 111 109 107 106 104 102 100 99 97 95 94 92 90 89 87 85 83 81 79 78 76 75 73 72 71 70 70 69 68 67 67 66 65 64 64 63 63 62 62 61 61 60
137 138 139 140 140 140 139 139 139 138 137 136 136 136 136 136 136 136 136 135 135 135 134 133 132 131 130 129 127 126 124 123 122 120 120 119 119 118 117 117 116 115 113 112 110 108 107 105 103 101 99 98 96 94 92 90 88 87 85 83 81 79 77 76 74 73 72 70 70 69 68 67 67 66 65 65 64 63 63 62 62 61 61 60 59 59
138 139 139 140 140 140 140 139 138 138 137 137 136 136 136 136 136 136 136 136 135 135 134 133 132 131 130 129 127 126 124 123 122 121 121 120 120 119 118 117 116 114 113 111 109 108 106 104 102 100 98 96 94 92 90 88 86 85 83 81 80 78 76 74 73 71 70 69 68 67 66 66 65 65 64 63 63 62 62 61 61 60 59 59 58 58
139 140 140 140 140 140 140 139 138 137 137 137 137 137 137 136 136 136 136 136 135 135 134 133 132 131 130 128 127 126 124 123 122 122 122 121 121 120 119 117 115 114 112 110 108 106 105 103 100 98 96 94 92 90 88 86 84 83 81 80 78 76 75 73 71 70 69 68 67 66 65 64 64 63 62 62 62 61 60 60 59 59 58 58 58 57
139 140 141 140 140 140 139 139 139 138 137 137 137 137 137 137 137 137 136 136 135 134 134 133 132 130 129 128 127 126 125 124 123 123 123 122 121 120 118 116 115 113 111 109 107 105 103 100 98 96 94 92 90 88 86 84 82 81 79 78 76 75 74 72 71 69 68 66 65 64 63 63 62 61 61 60 60 59 59 58 58 57 57 57 56 56
140 140 141 140 140 140 139 139 138 138 137 137 137 137 137 137 137 137 137 136 135 134 133 132 131 130 129 127 126 125 124 124 123 123 123 122 121 119 117 115 113 111 109 107 105 103 100 98 95 93 91 89 87 85 83 82 80 79 77 76 75 74 72 71 70 68 67 65 64 63 62 61 60 60 59 58 58 57 57 56 56 55 55 55 54 54
139 140 140 140 140 139 139 139 138 138 138 137 137 137 138 138 137 137 136 136 135 134 133 131 130 129 128 126 125 124 123 123 123 123 122 121 120 118 116 113 111 109 107 105 102 100 97 95 92 90 88 86 84 83 81 80 78 77 76 75 73 72 71 70 69 67 66 65 64 62 61 60 59 58 57 57 56 55 55 54 53 53 52 52 52 52
140 140 140 140 140 139 138 138 138 138 138 138 138 138 137 138 137 137 137 136 134 133 131 130 129 128 126 125 124 123 122 122 122 121 120 119 117 115 113 111 109 107 105 102 99 97 94 91 89 87 85 84 82 80 79 78 76 75 74 73 72 71 70 69 67 66 65 64 63 61 60 59 58 57 56 55 54 53 53 52 51 51 50 50 50 49
140 140 140 140 140 139 139 138 138 138 139 139 139 139 138 138 137 137 136 135 134 132 131 129 127 126 125 124 122 122 121 121 120 119 118 117 115 113 111 109 107 104 102 99 96 93 91 88 86 85 83 81 80 78 77 75 74 73 72 71 70 69 68 67 66 65 64 63 62 60 59 58 57 56 55 54 53 52 51 50 49 49 48 48 47 47
140 140 140 140 140 139 139 139 139 139 139 139 140 140 140 139 138 136 135 134 133 131 129 128 126 124 123 122 121 120 120 119 118 117 116 114 112 110 108 106 104 101 99 96 93 90 88 86 84 82 80 79 77 76 75 73 72 71 70 69 68 67 66 65 64 63 62 61 60 59 58 57 56 54 53 52 51 50 49 48 47 46 46 45 45 44
141 141 140 140 140 139 139 139 140 140 140 140 140 140 139 139 137 136 134 133 131 129 128 126 125 123 122 121 120 119 119 118 116 115 114 112 110 108 105 103 101 98 96 93 90 88 86 84 82 80 79 77 75 74 73 71 70 69 68 67 66 65 64 63 62 61 60 59 58 57 56 55 54 52 51 50 49 48 47 46 45 44 44 43 42 42
141 141 141 140 140 140 139 139 139 140 140 139 139 139 138 138 137 135 134 132 130 128 126 124 123 122 121 120 119 118 117 116 114 113 111 109 107 105 102 100 97 95 92 90 87 85 84 82 80 79 77 75 74 72 71 70 68 67 66 65 64 63 62 61 60 59 58 57 56 55 54 53 51 50 49 48 47 46 45 44 43 43 42 41 40 40
141 140 140 140 140 139 139 139 139 140 139 139 139 138 138 137 136 134 132 131 129 127 125 123 122 121 120 119 118 117 115 114 112 110 109 107 104 102 99 97 94 92 89 87 85 83 81 80 78 77 75 74 72 71 70 68 67 66 64 63 62 61 60 59 58 57 55 54 53 52 51 50 49 48 47 46 45 44 43 42 42 41 40 39 39 38
140 140 139 139 139 139 139 139 139 139 139 139 139 138 137 136 134 133 131 129 127 125 123 122 121 120 119 118 116 115 113 112 110 108 106 104 101 98 96 94 91 89 87 85 83 81 80 78 76 75 73 72 71 69 68 67 65 64 63 62 61 59 58 57 55 54 53 52 51 50 49 48 47 46 45 44 43 42 42 41 40 39 39 38 37 37
140 140 139 139 139 139 139 139 139 139 139 139 138 137 136 135 133 131 129 127 125 123 122 120 119 119 118 117 115 113 111 110 108 106 104 101 98 95 93 91 88 86 84 83 81 79 78 76 74 73 72 70 69 68 66 65 64 62 61 60 59 57 56 55 53 52 51 50 49 48 47 46 45 44 43 42 42 41 40 39 39 38 37 37 36 36
140 139 139 139 139 139 139 139 139 139 138 138 137 136 135 133 131 130 127 125 123 122 120 119 118 118 116 115 113 111 109 107 106 103 101 98 95 92 90 88 86 84 82 80 79 77 76 74 73 71 70 68 67 66 65 63 62 61 59 58 56 55 54 52 51 50 49 48 47 46 45 44 43 42 42 41 40 40 39 38 38 37 37 36 35 35
140 139 139 139 139 139 139 139 139 139 138 137 137 135 134 132 130 128 126 123 121 120 119 119 118 116 115 113 111 109 107 105 103 101 98 95 93 90 88 86 84 82 80 78 77 75 73 72 71 69 68 66 65 64 63 61 60 58 57 56 54 53 52 50 49 48 47 46 45 44 43 43 42 41 41 40 39 39 38 38 37 36 36 35 34 34
139 139 139 139 139 139 139 139 139 138 137 136 135 134 132 130 128 126 123 121 120 119 118 117 116 115 113 111 109 107 105 103 100 98 95 93 90 88 85 84 82 80 78 76 74 73 71 70 68 67 66 64 63 62 60 59 57 56 55 53 52 51 49 48 47 46 45 45 44 43 42 42 41 40 39 39 38 38 37 37 36 35 35 34 34 33
139 139 139 139 139 139 139 139 138 137 136 135 134 132 130 128 126 124 121 120 119 118 117 116 115 113 110 109 107 105 102 100 98 95 92 90 88 85 83 81 80 78 76 74 72 70 69 67 66 65 63 62 61 60 58 57 55 54 52 51 50 48 47 46 46 45 44 43 43 42 41 41 40 39 39 38 37 37 36 36 35 35 34 33 33 32
138 138 139 139 139 139 139 139 138 137 135 134 132 130 128 126 124 121 119 118 118 117 116 115 113 110 108 106 104 102 99 97 94 92 90 88 85 83 81 79 77 75 74 72 70 68 67 65 64 63 61 60 59 57 56 54 53 51 50 49 48 47 46 45 44 43 43 42 42 41 40 40 39 38 38 37 36 36 35 35 34 34 33 32 32 31
138 138 138 139 139 139 138 138 137 136 134 132 130 128 126 123 121 119 118 117 116 115 114 112 110 108 106 104 101 99 96 93 91 89 87 85 83 81 78 76 75 73 71 70 68 66 65 63 62 61 59 58 57 55 54 52 51 50 48 47 46 45 44 43 43 42 41 41 40 40 39 38 38 37 36 36 35 34 34 33 33 32 32 31 31 30
138 138 138 138 138 138 138 137 136 134 132 130 128 126 123 121 119 117 116 115 114 113 112 110 108 106 103 101 99 96 93 90 88 86 84 82 80 78 76 74 72 71 69 68 66 64 63 61 60 59 57 56 55 53 52 50 49 48 47 46 45 44 43 42 41 40 40 39 39 38 38 37 36 36 35 34 34 33 32 32 31 31 30 30 29 29
138 138 138 138 138 138 137 136 135 133 131 128 126 124 121 119 117 116 115 114 113 111 110 108 106 104 102 99 96 93 91 88 85 83 82 80 78 76 74 72 70 69 67 66 64 62 61 60 58 57 56 54 53 52 50 49 48 47 46 45 44 43 42 41 40 39 38 38 37 37 36 36 35 34 34 33 32 32 31 30 30 29 28 28 27 27
138 138 138 138 137 137 136 135 133 131 129 126 124 121 119 117 116 115 114 113 111 110 108 106 104 102 99 97 94 91 88 86 84 82 80 78 76 74 72 70 68 67 66 64 63 61 59 58 57 55 54 53 51 50 49 48 47 45 44 43 42 42 41 40 39 38 37 36 35 35 34 34 33 33 32 31 31 30 29 29 28 27 27 26 26 25
138 138 138 137 137 136 135 133 131 129 127 124 121 119 117 116 115 114 113 111 110 108 106 104 102 100 97 95 92 89 87 84 82 80 78 76 74 72 70 68 66 65 64 63 61 59 58 57 55 54 53 51 50 49 48 47 46 44 43 42 41 40 39 38 37 36 35 34 34 33 33 32 32 31 31 30 30 29 28 28 27 26 26 25 25 24
138 137 137 137 136 135 133 131 129 127 124 121 119 117 115 114 114 113 112 110 108 106 104 102 100 98 95 93 90 87 85 82 80 78 76 74 72 70 68 66 65 63 62 61 60 58 57 55 54 53 51 50 49 48 47 46 45 44 42 41 40 39 38 37 36 35 34 33 33 32 31 31 31 30 30 29 29 28 28 27 26 25 25 24 24 23
138 137 137 136 134 133 131 129 127 124 122 119 117 115 114 113 112 111 110 108 106 104 103 100 98 96 93 90 88 85 83 80 78 76 74 72 70 68 66 65 63 61 60 59 58 57 55 54 53 51 50 49 48 47 46 45 44 43 41 40 39 38 37 36 35 34 34 33 32 31 31 30 30 30 29 29 28 28 27 26 25 25 24 24 23 22
137 137 136 135 133 131 129 127 124 122 119 117 115 114 113 112 110 109 107 106 104 103 101 98 95 93 90 88 86 84 81 78 76 74 72 70 68 66 65 63 62 60 59 57 56 55 53 52 51 50 49 48 47 46 45 44 43 42 40 39 38 37 36 35 35 34 33 33 32 31 30 30 29 29 29 28 28 27 26 26 25 24 24 23 22 22
136 135 134 133 131 129 127 124 121 119 116 114 113 113 111 110 109 107 105 104 102 100 98 96 93 90 88 86 83 81 79 77 74 72 70 68 66 65 63 62 61 59 58 56 55 53 52 51 50 49 48 47 46 45 44 43 42 41 40 39 38 37 36 35 34 34 33 32 32 31 30 30 29 29 28 28 27 27 26 25 24 24 23 23 22 21
134 133 132 130 128 126 124 121 118 116 114 113 112 111 110 108 107 105 104 102 100 98 96 93 90 87 85 83 81 79 77 75 72 70 68 66 65 63 62 61 59 58 57 55 54 53 52 50 49 48 47 46 45 44 43 42 41 40 39 38 37 36 35 35 34 33 33 32 31 31 30 29 29 28 27 27 26 26 25 25 24 23 23 22 21 21
133 131 129 127 125 123 121 118 116 114 112 112 111 110 108 107 105 104 102 100 98 96 93 91 88 85 83 81 78 76 74 72 70 68 67 65 63 62 61 59 58 57 56 55 53 52 51 50 49 48 46 45 45 44 43 42 41 40 39 38 37 36 35 34 34 33 32 31 31 30 29 29 28 28 27 26 26 25 25 24 23 22 22 21 20 20
131 129 127 125 122 120 118 115 113 112 111 111 110 108 107 105 103 102 100 98 96 93 91 88 85 83 81 79 76 74 72 70 68 67 65 64 62 61 60 58 57 56 55 54 53 51 50 49 48 47 46 45 44 43 42 41 40 40 39 38 37 36 35 34 34 33 32 31 30 30 29 28 28 27 26 26 25 24 24 23 23 22 21 21 20 19
128 126 124 122 120 118 115 113 112 111 110 109 108 107 105 103 102 100 99 96 94 91 88 86 83 81 79 77 74 72 70 69 67 65 64 62 61 60 59 57 56 55 54 53 52 51 50 49 48 47 46 45 44 43 42 41 40 39 39 38 37 36 35 34 34 33 32 31 30 29 29 28 27 27 26 25 24 24 23 23 22 21 21 20 19 19
126 124 122 119 117 115 113 112 111 110 109 108 107 105 103 102 100 99 97 94 91 89 86 83 81 79 76 74 72 70 69 67 66 64 63 62 61 59 58 57 56 55 54 53 52 51 50 49 47 46 46 45 44 43 42 41 40 39 38 38 37 36 35 34 33 33 32 31 30 29 28 28 27 26 25 25 24 23 23 22 21 21 20 20 19 18
124 121 119 117 115 113 111 110 110 109 108 107 105 103 102 100 99 97 94 92 89 86 84 81 79 77 74 72 70 69 67 66 64 63 62 61 60 58 57 56 55 54 53 52 51 50 49 48 47 46 45 44 44 43 42 41 40 39 38 37 37 36 35 34 33 32 32 31 30 29 28 27 27 26 25 24 24 23 22 21 21 20 20 19 19 18
121 119 117 115 113 111 110 109 109 108 107 105 104 102 101 99 97 95 92 89 87 84 82 79 77 75 73 70 69 67 66 64 63 62 61 60 59 58 57 56 55 54 53 52 51 50 49 48 47 46 45 44 43 42 42 41 40 39 38 37 36 36 35 34 33 32 32 31 30 29 28 27 26 26 25 24 23 23 22 21 21 20 20 19 19 18
118 116 115 113 111 110 109 108 108 106 105 103 102 100 99 97 95 92 90 87 84 82 80 77 75 73 71 69 67 66 64 63 62 61 60 59 58 57 56 55 54 53 52 51 50 49 48 48 47 46 45 44 43 42 41 40 40 39 38 37 36 35 35 34 33 32 31 30 30 29 28 27 26 25 24 24 23 22 22 21 20 20 19 19 19 18
116 114 112 111 109 108 108 107 106 105 103 102 100 99 97 95 93 90 87 85 82 80 77 75 73 71 69 67 66 64 63 62 61 60 59 58 57 56 55 54 53 52 51 50 49 49 48 47 46 45 44 44 43 42 41 40 39 38 37 37 36 35 34 33 33 32 31 30 29 28 28 27 26 25 24 24 23 22 22 21 20 20 19 19 18 18
114 112 110 109 108 107 107 106 104 103 102 100 99 97 96 93 91 88 85 82 80 78 75 73 71 69 67 66 64 63 62 61 60 59 58 57 56 55 54 53 52 51 51 50 49 48 47 46 45 45 44 43 42 41 41 39 39 38 37 36 35 35 34 33 32 31 30 29 29 28 27 26 25 25 24 23 23 22 21 21 20 20 19 19 18 18
112 110 108 107 107 106 105 104 103 101 100 99 98 96 94 91 89 86 83 80 78 76 73 71 69 68 66 65 63 62 61 60 59 58 57 56 55 54 53 52 51 51 50 49 48 47 46 45 45 44 43 42 41 41 40 39 38 37 36 35 34 33 33 32 31 30 29 29 28 27 26 25 25 24 23 23 22 21 21 20 20 19 19 18 18 18
110 108 107 106 105 105 104 103 101 100 99 98 96 94 92 89 86 83 81 78 76 74 72 70 68 66 65 64 62 61 60 59 58 57 56 55 54 54 53 52 51 50 49 48 47 46 46 45 44 43 42 41 40 39 39 38 37 36 35 34 33 32 32 31 30 29 29 28 27 26 25 24 24 23 22 22 21 21 20 20 19 19 18 18 18 17
108 106 105 105 104 104 103 101 100 99 98 96 95 92 90 87 84 81 79 76 74 72 70 68 66 65 64 63 61 60 59 58 57 56 55 54 53 53 52 51 50 49 48 48 47 46 45 44 43 42 41 40 39 38 37 36 36 35 34 33 32 31 31 30 29 28 27 27 26 25 24 23 23 22 22 21 20 20 20 19 19 19 18 18 17 17
106 105 104 104 103 102 101 100 99 98 97 95 93 90 88 85 82 79 77 75 73 70 68 66 65 64 63 62 60 59 58 57 56 55 54 53 53 52 51 50 50 49 48 47 46 45 44 43 42 41 40 39 38 37 36 35 34 34 33 32 31 30 29 29 28 27 26 26 25 24 23 23 22 21 21 20 20 19 19 18 18 18 18 17 17 16
105 104 104 103 102 101 100 99 98 97 95 93 91 88 85 83 80 77 75 73 71 69 67 65 64 63 62 61 60 59 57 56 55 54 53 53 52 51 50 50 49 48 47 46 45 44 43 42 41 40 39 38 37 36 35 34 33 32 32 31 30 29 29 28 27 26 26 25 24 23 23 22 21 21 20 19 19 18 18 18 17 17 17 16 16 16
104 104 103 102 101 100 99 98 97 95 94 91 89 86 83 80 78 76 74 72 69 68 66 64 63 62 61 60 59 58 57 56 55 54 53 52 51 51 50 49 48 47 46 46 45 44 43 42 41 40 38 37 37 35 34 33 32 31 31 30 29 28 28 27 27 26 25 25 24 23 23 22 21 20 20 19 18 18 17 17 16 16 16 15 15 15
103 103 102 101 100 99 98 97 96 94 92 89 87 84 81 78 76 74 72 70 68 66 65 64 62 61 60 59 58 57 56 55 54 53 52 52 51 50 49 48 47 47 46 45 44 43 42 41 40 39 37 36 36 35 34 33 32 31 30 29 29 28 27 27 26 25 25 24 24 23 23 22 21 21 20 19 18 18 17 16 16 15 15 15 14 14
102 102 101 100 99 98 97 96 94 92 90 87 85 82 79 77 74 72 70 68 67 65 64 63 62 61 59 58 57 56 55 54 53 53 52 51 50 50 49 48 47 46 45 44 43 42 41 40 39 38 37 35 34 34 33 32 31 31 30 29 28 28 27 27 26 25 25 24 24 23 23 22 21 21 20 19 18 17 17 16 16 15 14 14 14 13
101 101 100 99 98 97 96 94 93 90 88 85 82 80 77 75 73 71 69 67 65 64 63 62 61 60 59 58 56 55 54 54 53 52 51 51 50 49 48 47 46 45 45 44 43 42 40 39 38 37 36 35 34 33 32 32 31 30 30 29 28 28 27 27 26 25 25 24 24 23 22 22 21 20 19 19 18 17 16 16 15 14 14 13 13 13
101 100 99 98 97 96 95 93 91 88 86 83 80 78 75 73 71 69 67 66 64 63 62 61 60 59 58 57 56 55 54 53 52 52 51 50 49 48 47 47 46 45 44 43 42 41 40 39 38 36 35 34 33 32 31 31 31 30 30 29 29 28 27 27 26 25 24 24 23 23 22 21 21 20 19 18 17 16 16 15 14 14 13 13 12 12
Wind_Direction
324 324 324 324 324 325 325 325 325 325 325 325 326 326 326 326 326 326 326 325 325 325 324 324 323 323 322 322 321 321 320 320 319 319 318 318 317 317 316 316 315 315 315 314 314 314 313 313 312 312 311 311 310 310 309 308 307 307 306 305 304 304 303 302 301 301 300 300 299 299 298 297 297 296 295 294 293 292 291 289 288 287 286 285 284 283
324 324 324 324 324 324 325 325 325 325 325 325 325 326 326 326 326 326 325 325 325 324 324 323 323 322 322 321 321 320 320 320 319 319 318 318 317 317 316 316 316 315 315 315 314 314 314 313 313 312 312 311 311 310 309 309 308 307 306 305 305 304 304 303 303 302 302 301 301 300 300 299 298 297 296 295 294 293 291 290 289 288 287 286 285 284
324 324 324 324 324 324 324 325 325 325 325 325 325 325 325 325 325 325 325 325 324 324 323 323 322 322 321 321 321 320 320 319 319 319 318 318 317 317 316 316 316 316 315 315 315 315 314 314 313 313 312 312 311 311 310 309 308 308 307 306 306 305 305 304 304 303 303 303 302 301 301 300 299 298 297 296 295 294 293 292 291 290 288 288 287 286
323 324 324 324 324 324 324 324 325 325 325 325 325 325 325 325 325 325 324 324 324 323 323 323 322 322 321 321 320 320 320 319 319 319 318 318 317 317 317 317 316 316 316 316 316 315 315 314 314 313 313 312 312 311 310 310 309 308 307 307 307 306 306 305 305 305 304 304 303 302 301 300 299 298 297 297 296 295 294 293 292 291 290 289 288 287
323 324 324 324 324 324 324 324 324 325 325 325 325 325 325 325 325 324 324 324 323 323 323 322 322 321 321 321 320 320 320 320 319 319 318 318 318 317 317 317 317 317 317 316 316 316 315 315 314 314 313 313 312 311 311 310 309 309 308 308 307 307 307 307 306 305 305 304 303 302 301 300 299 299 298 297 297 296 295 294 293 292 291 290 289 287
323 323 324 324 324 324 324 324 324 324 324 325 325 325 325 324 324 324 324 323 323 323 322 322 322 321 321 321 320 320 320 320 319 319 319 318 318 318 318 318 317 317 317 316 316 316 315 315 314 314 313 313 312 311 311 310 310 309 309 309 308 308 308 307 307 306 305 304 303 302 302 301 300 299 298 298 297 296 295 294 293 292 292 290 289 288
323 323 323 323 323 323 323 324 324 324 324 324 324 324 324 324 324 324 324 323 323 323 322 322 322 321 321 321 321 320 320 320 320 319 319 318 318 318 318 318 318 317 317 316 316 316 315 315 314 314 313 313 312 311 311 310 310 310 310 309 309 309 308 307 307 306 305 304 303 303 302 301 300 299 298 297 297 296 295 294 293 292 291 290 289 288
323 323 323 323 323 323 323 323 323 324 324 324 324 324 324 324 324 324 323 323 323 323 322 322 322 321 321 321 321 320 320 320 319 319 319 318 318 318 318 318 317 317 317 316 316 315 315 315 314 314 313 312 312 311 311 311 311 310 310 310 309 309 308 307 307 306 306 305 304 303 302 301 300 299 298 298 297 296 295 294 293 292 291 290 289 288
322 323 323 323 323 323 323 323 323 323 324 324 324 324 324 324 324 323 323 323 323 322 322 322 321 321 321 320 320 320 320 319 319 319 318 318 318 318 318 317 317 317 316 316 316 315 315 315 314 314 313 313 312 312 312 311 311 311 311 310 309 309 308 308 307 307 306 305 305 304 303 302 301 300 299 298 297 296 296 294 294 292 291 290 289 289
322 322 322 322 322 322 322 322 323 323 323 323 324 324 324 324 324 323 323 323 322 322 322 321 321 321 320 320 320 320 319 319 319 318 318 317 317 317 317 317 317 316 316 316 316 315 315 315 314 314 313 313 312 312 312 312 311 311 310 310 309 309 308 308 307 307 306 306 305 305 304 303 302 301 300 299 298 297 296 295 294 293 292 291 290 289
322 322 322 322 322 322 322 322 323 323 323 324 324 324 324 324 324 323 323 322 322 322 321 321 321 320 320 320 319 319 319 319 318 318 318 317 317 317 317 317 317 316 316 316 316 315 315 315 314 314 313 313 313 313 312 312 312 311 310 310 309 309 308 308 307 307 307 306 305 305 304 304 303 302 301 300 299 298 297 296 295 294 293 292 290 289
321 321 321 321 322 322 322 322 323 323 323 324 324 324 324 324 323 323 322 322 322 321 321 321 320 320 320 319 319 319 319 319 318 318 317 317 317 317 317 317 317 316 316 316 316 316 315 315 314 314 314 314 313 313 313 312 311 311 310 310 309 309 308 308 307 307 307 306 306 305 305 304 303 302 302 301 300 299 298 297 296 295 293 292 291 290
321 321 321 321 321 322 322 322 323 323 324 324 324 324 324 323 323 323 322 322 321 321 321 320 320 320 319 319 319 319 319 318 318 318 318 317 318 318 317 317 317 317 316 316 316 316 316 315 315 315 314 314 314 313 313 312 311 311 310 310 309 309 309 308 308 307 307 306 306 305 305 304 303 303 302 301 300 299 298 297 296 295 294 293 291 290
321 321 321 321 321 322 322 323 323 323 324 324 324 323 323 323 322 322 322 321 321 321 320 320 320 319 319 319 319 319 319 319 318 318 318 318 318 318 318 317 317 317 317 317 317 316 316 316 315 315 315 315 314 314 313 312 312 311 311 310 310 309 309 308 308 307 307 306 306 305 305 304 303 303 302 301 300 299 298 298 297 296 294 293 292 291
320 320 321 321 321 322 322 323 323 323 323 323 323 323 323 322 322 322 321 321 321 321 320 320 320 319 319 319 319 319 319 319 319 318 318 318 318 318 318 318 317 317 317 317 317 317 316 316 316 316 315 315 314 314 313 313 313 312 311 311 310 310 310 309 308 308 307 306 306 305 304 304 303 302 302 301 300 299 299 298 297 296 295 294 293 292
320 320 320 321 321 322 322 322 323 323 323 323 323 323 322 322 322 321 321 321 321 320 320 320 320 320 320 320 320 320 320 319 319 319 319 319 319 319 319 318 318 318 318 318 317 317 317 317 316 316 316 315 315 314 314 313 313 312 312 312 311 310 310 309 309 308 307 306 306 305 304 304 303 302 302 301 300 300 299 298 297 296 295 294 293 292
320 320 320 321 321 322 322 322 323 323 323 323 323 322 322 322 322 321 321 321 321 320 320 320 320 320 320 320 320 320 320 320 319 319 319 319 319 319 319 319 318 318 318 318 318 318 317 317 317 316 316 316 315 315 314 314 313 313 312 312 312 311 310 310 309 308 307 306 306 305 304 304 303 302 302 301 301 300 299 298 298 297 296 295 294 293
320 320 320 321 321 322 322 322 323 323 323 323 322 322 322 322 321 321 321 321 320 320 320 320 320 320 320 320 320 320 320 320 320 320 320 320 320 320 320 319 319 319 319 318 318 318 318 318 317 317 316 316 315 315 314 314 314 313 313 312 312 311 311 310 309 308 307 307 306 305 305 304 303 303 302 302 301 300 300 299 298 298 297 296 295 294
320 320 320 321 321 322 322 322 322 323 323 323 322 322 322 322 321 321 321 321 321 320 320 320 320 320 320 320 321 321 321 320 320 320 320 320 320 320 320 320 319 319 319 319 319 318 318 318 317 317 317 316 316 315 315 314 314 314 313 313 312 311 311 310 309 309 308 307 306 306 305 305 304 304 303 303 302 301 301 300 299 298 298 297 296 294
320 320 321 321 321 322 322 322 322 323 323 323 322 322 322 322 321 321 321 321 321 321 321 321 321 321 321 321 321 321 321 321 321 321 321 321 321 321 320 320 320 320 319 319 319 319 318 318 317 317 317 316 316 315 315 315 314 314 313 313 312 311 311 310 309 309 308 308 307 307 306 306 305 305 304 304 303 303 302 301 301 300 299 298 297 296
320 320 321 321 321 322 322 322 322 323 323 322 322 322 322 322 321 321 321 321 321 321 321 321 321 321 321 321 322 322 322 322 321 321 321 321 321 321 321 320 320 320 319 319 319 319 319 318 318 317 317 316 316 316 315 315 315 314 314 313 312 312 311 310 310 309 309 309 308 308 307 307 307 306 306 305 305 304 304 303 302 301 300 300 298 297
320 320 321 321 322 322 322 322 323 323 323 322 322 322 322 322 321 321 321 321 321 321 321 321 321 322 322 322 322 322 322 322 322 322 322 322 321 321 321 321 320 320 320 319 319 319 319 318 318 317 317 317 316 316 316 316 315 315 314 313 313 312 312 311 311 310 310 310 310 309 309 309 308 308 308 307 306 306 305 304 304 303 302 301 300 299
320 320 321 321 322 322 322 322 323 323 323 322 322 322 322 322 321 321 321 321 321 321 321 321 322 322 322 322 322 322 322 322 322 322 322 322 321 321 321 321 320 320 320 320 320 319 319 319 318 318 317 317 317 317 316 316 316 315 315 314 314 313 313 312 312 312 312 312 311 311 311 310 310 309 309 308 308 307 306 306 305 304 303 303 302 300
320 321 321 322 322 322 322 323 323 323 322 322 322 322 322 322 322 322 322 322 322 322 322 322 322 322 323 323 323 323 323 323 323 323 322 322 322 321 321 321 321 320 320 320 320 320 320 319 319 319 318 318 318 318 317 317 316 316 315 315 314 314 314 314 314 313 313 313 313 312 312 311 311 310 310 309 309 308 307 307 306 305 304 304 302 301
320 321 321 322 322 322 322 323 323 322 322 322 322 322 322 322 322 322 322 322 322 322 322 322 323 323 323 323 323 323 323 323 323 323 323 322 322 322 322 322 321 321 321 321 321 320 320 320 320 319 319 319 319 318 318 318 317 317 316 316 316 316 315 315 315 315 315 314 314 313 313 312 311 311 310 309 309 308 307 307 306 305 305 304 303 302
320 321 321 322 322 322 323 323 323 322 322 322 322 322 322 322 322 322 322 323 323 323 323 323 323 324 324 324 324 324 324 324 324 324 323 323 323 322 322 322 322 322 321 321 321 321 321 321 320 320 320 320 319 319 319 318 318 318 317 317 317 317 317 317 317 316 316 315 314 313 313 312 311 310 310 309 308 308 307 306 305 305 304 303 302 301
321 321 322 322 322 323 323 323 323 323 322 322 322 323 323 323 323 323 323 323 323 324 324 324 324 324 325 325 325 325 325 324 324 324 324 323 323 323 323 323 323 322 322 322 322 322 322 321 321 321 321 320 320 320 319 319 319 318 318 318 318 318 318 318 317 316 316 315 314 313 312 311 310 309 309 308 307 307 306 305 305 304 303 302 301 300
321 322 322 322 323 323 323 323 323 323 323 323 323 323 323 323 323 323 323 324 324 324 324 325 325 325 325 325 325 325 325 325 324 324 324 324 323 323 323 323 323 323 323 322 322 322 322 322 322 322 321 321 320 320 320 320 320 319 319 319 319 319 318 318 317 316 315 314 313 312 311 310 309 308 308 307 307 306 306 305 304 304 303 302 301 299
321 322 322 323 323 323 323 323 323 323 323 323 323 323 323 324 324 324 324 324 324 325 325 325 326 326 326 326 325 325 325 325 325 325 324 324 324 324 324 324 323 323 323 323 323 323 323 322 322 322 322 321 321 321 320 320 320 320 320 319 319 318 318 317 316 315 314 313 312 311 310 309 309 308 308 307 307 306 306 305 305 304 303 302 301 299
322 322 323 323 323 323 323 323 323 323 323 323 323 324 324 324 324 324 325 325 325 325 326 326 326 326 326 326 326 325 325 325 325 325 325 325 324 324 324 324 324 324 323 323 323 323 323 322 322 322 322 321 321 321 321 320 320 320 320 319 318 317 317 316 315 314 313 312 311 311 310 310 309 308 308 307 307 307 306 306 305 304 303 302 301 299
322 322 323 323 323 323 323 323 323 323 323 323 324 324 324 325 325 325 325 325 326 326 326 326 326 326 326 326 326 326 325 325 325 325 325 325 325 325 325 324 324 324 324 323 323 323 323 323 322 322 322 321 321 321 321 321 320 320 319 318 318 316 316 315 314 313 313 312 312 311 310 310 309 309 308 308 307 307 307 306 306 305 304 303 302 300
322 322 322 323 323 322 322 322 323 323 323 324 324 325 325 325 325 326 326 326 326 326 327 327 327 327 327 326 326 326 325 325 325 325 325 325 325 325 325 325 324 324 324 324 324 324 323 323 323 322 322 322 322 321 321 321 320 319 319 318 317 316 315 315 314 313 313 312 311 311 310 310 309 309 308 308 308 307 307 307 306 305 304 304 302 301
322 322 322 322 322 322 322 323 323 324 324 324 325 325 325 326 326 326 326 327 327 327 327 327 327 327 327 326 326 326 326 326 326 326 326 325 325 325 325 325 325 324 324 324 324 324 324 324 323 323 322 322 322 322 321 321 320 319 318 318 317 316 315 315 314 313 313 312 312 311 311 310 309 309 309 308 308 308 307 307 306 306 305 303 303 301
322 322 322 322 323 323 323 323 324 324 325 325 325 326 326 326 326 327 327 327 327 327 327 327 327 327 327 327 326 326 326 326 326 326 326 326 326 326 325 325 325 325 325 325 325 325 324 324 324 324 323 323 322 322 321 321 320 319 318 318 317 316 316 315 314 313 313 312 312 311 310 310 309 309 309 308 308 307 307 307 306 305 304 303 302 301
322 322 322 323 323 323 323 324 324 325 325 326 326 326 327 327 327 327 327 328 328 328 328 328 328 327 327 327 327 326 326 326 326 326 326 326 326 326 326 326 325 325 325 325 325 325 325 325 325 324 324 323 323 322 322 321 320 320 319 318 317 317 316 315 315 314 313 312 312 311 311 310 309 309 308 308 307 307 306 306 305 304 303 302 301 300
322 323 323 323 323 324 324 324 325 326 326 326 327 327 327 327 328 328 328 328 328 328 328 328 328 328 327 327 327 327 327 327 327 327 327 327 327 327 326 326 326 326 326 326 326 326 326 325 325 325 324 324 323 323 322 322 321 320 319 319 318 317 316 315 315 314 313 313 312 311 311 310 309 309 308 308 307 306 305 305 304 303 302 301 300 299
323 323 323 324 324 324 325 325 326 326 327 327 327 327 328 328 328 328 328 328 329 328 328 328 328 328 328 327 327 327 327 327 327 327 327 327 327 327 327 327 327 327 327 327 327 327 326 326 326 325 325 325 324 324 323 322 321 321 320 319 318 317 317 316 315 315 314 313 313 312 311 310 310 309 308 307 306 306 305 304 302 302 301 299 298 297
323 323 324 324 324 325 325 326 326 327 327 327 328 328 328 328 329 329 329 329 329 329 329 329 328 328 328 328 328 328 328 328 328 328 328 328 328 328 328 328 328 328 328 328 327 327 327 326 326 326 326 325 325 324 323 323 322 321 320 320 319 318 317 317 316 316 315 314 313 313 312 311 310 309 308 307 306 305 304 303 302 301 299 298 297 296
324 324 324 325 325 326 326 327 327 327 328 328 328 328 329 329 329 329 329 329 329 329 329 329 329 328 328 328 328 328 328 328 328 328 328 328 328 328 328 328 328 328 328 328 328 327 327 327 327 326 326 326 325 325 324 323 323 322 321 321 320 319 319 318 317 316 316 315 314 313 313 312 311 310 309 307 306 305 304 303 302 300 299 298 296 295
324 324 325 325 326 326 327 327 328 328 328 328 329 329 329 329 329 329 330 330 329 329 329 329 329 329 329 329 329 329 329 329 329 329 329 329 329 329 329 329 329 329 329 328 328 328 328 327 327 327 327 327 326 325 325 324 324 323 322 322 321 321 320 319 318 318 317 316 316 315 314 313 311 310 309 308 307 305 304 302 301 300 298 297 295 294
325 325 325 326 326 327 327 328 328 328 328 329 329 329 329 330 330 330 330 330 330 330 329 329 329 329 329 329 329 329 329 329 329 329 329 329 329 329 329 329 329 329 329 329 329 329 328 328 328 328 327 327 327 326 326 325 325 324 324 323 323 322 321 321 320 319 319 318 317 316 315 314 312 311 310 308 307 306 304 303 302 300 299 297 296 294
325 325 326 326 327 328 328 328 328 329 329 329 330 330 330 330 330 330 330 330 330 330 330 329 329 329 330 330 330 330 330 330 330 330 330 330 330 330 330 330 330 330 330 329 329 329 329 329 329 328 328 328 327 327 327 326 325 325 325 324 324 323 322 322 321 321 320 319 318 317 316 315 314 312 311 309 307 306 304 303 302 300 299 297 296 295
325 326 326 327 328 328 329 329 329 329 330 330 330 330 330 330 330 330 330 330 330 330 330 330 330 330 330 330 330 330 330 330 331 331 331 331 331 331 331 331 331 331 330 330 330 330 330 330 329 329 329 329 328 328 327 327 327 326 326 326 325 325 324 323 323 322 321 320 319 318 317 316 314 313 311 310 308 306 305 303 302 301 300 298 297 295
326 326 327 328 328 329 329 329 330 330 330 330 331 330 331 331 331 331 331 331 330 330 330 330 330 330 331 331 331 331 331 331 331 331 331 331 331 331 331 331 331 331 331 331 331 331 331 330 330 330 330 329 329 329 328 328 328 327 327 327 326 326 325 325 324 323 322 321 320 319 318 316 315 313 312 310 308 307 305 304 302 301 300 299 298 296
326 327 328 329 329 330 330 330 330 331 331 331 331 331 331 331 331 331 331 331 331 331 331 331 331 331 331 331 331 331 332 332 332 332 332 332 332 332 332 332 332 332 332 332 332 332 332 332 331 331 330 330 330 330 329 329 329 328 328 328 327 327 326 326 325 324 323 322 321 320 318 317 315 313 312 310 309 307 306 305 304 302 301 300 300 298
327 328 329 329 330 330 331 331 331 331 331 331 331 331 331 331 331 331 331 331 331 331 331 331 332 332 332 332 332 332 332 333 333 333 333 333 333 333 333 333 333 333 333 333 333 333 333 332 332 332 332 331 331 331 330 330 330 329 329 329 328 328 327 327 326 325 324 323 321 320 318 317 315 314 312 311 310 309 308 306 305 304 303 301 301 300
328 329 330 330 331 331 331 331 331 331 331 331 331 331 332 332 332 331 331 331 332 332 332 332 332 332 333 333 333 333 333 334 334 334 334 334 334 334 334 334 334 334 334 334 334 334 333 333 333 333 333 332 332 332 331 331 331 330 330 330 329 329 328 328 327 326 325 324 322 321 320 318 317 315 314 313 312 311 310 309 308 307 305 304 303 302
329 330 330 331 331 331 332 332 332 332 332 332 332 332 332 332 332 332 332 332 332 332 332 333 333 333 333 334 334 334 334 335 335 335 335 335 335 335 335 335 335 335 335 335 335 335 334 334 334 334 334 334 333 333 332 332 332 332 331 331 331 330 330 329 328 328 327 325 324 323 321 320 319 318 317 317 317 316 315 313 312 311 309 308 307 305
330 330 331 331 332 332 332 332 332 332 332 332 332 332 332 332 332 332 332 332 333 333 333 333 333 334 334 334 335 335 335 336 336 336 336 336 336 336 336 336 336 336 336 336 336 336 335 335 335 335 335 335 335 334 334 334 334 333 333 333 333 332 332 331 331 330 329 328 327 325 324 323 323 323 322 322 322 322 321 319 317 315 314 312 310 309
330 331 332 332 332 332 332 332 332 332 332 332 332 333 332 333 333 333 333 333 333 333 334 334 334 334 335 335 336 336 336 337 337 337 337 337 337 337 337 337 337 338 337 337 337 337 337 336 336 336 336 336 337 336 336 336 336 336 336 335 335 335 334 334 333 332 332 331 330 328 328 327 327 327 328 329 329 329 327 326 323 321 319 317 315 314
331 332 332 333 333 333 333 333 333 333 333 333 333 333 333 333 333 333 333 333 334 334 334 335 335 335 336 336 337 337 337 337 337 338 338 338 338 338 338 338 339 339 338 338 338 338 338 337 337 337 337 338 338 338 338 338 338 338 338 338 337 337 337 336 336 335 334 333 333 332 331 331 332 332 333 334 335 335 334 332 329 326 323 322 319 317
Height
10476 10470 10465 10459 10453 10447 10440 10435 10430 10424 10418 10410 10403 10397 10392 10385 10378 10372 10367 10360 10355 10349 10343 10337 10330 10323 10317 10312 10306 10300 10294 10288 10283 10278 10273 10267 10262 10257 10252 10247 10241 10236 10231 10226 10221 10217 10212 10207 10203 10198 10194 10190 10185 10181 10177 10172 10168 10163 10158 10155 10152 10149 10146 10143 10140 10138 10135 10132 10130 10127 10125 10121 10118 10116 10114 10113 10111 10108 10107 10105 10103 10101 10099 10097 10095 10095
10468 10463 10457 10452 10447 10440 10433 10427 10422 10417 10411 10405 10398 10391 10385 10378 10372 10365 10359 10353 10347 10341 10335 10330 10323 10317 10310 10304 10298 10293 10287 10281 10275 10270 10265 10259 10253 10248 10243 10238 10232 10227 10222 10217 10212 10207 10202 10198 10193 10188 10184 10180 10175 10171 10167 10162 10158 10153 10149 10145 10142 10139 10137 10134 10131 10128 10126 10123 10122 10119 10117 10113 10110 10107 10105 10103 10102 10100 10098 10096 10094 10092 10090 10089 10088 10087
10463 10457 10450 10445 10439 10433 10427 10422 10415 10410 10404 10398 10392 10386 10379 10373 10367 10360 10353 10347 10340 10334 10328 10322 10316 10310 10303 10297 10291 10285 10279 10273 10267 10262 10256 10250 10245 10239 10233 10228 10223 10218 10212 10207 10202 10197 10192 10187 10183 10178 10174 10170 10165 10160 10156 10152 10148 10143 10139 10136 10133 10130 10128 10125 10122 10120 10117 10115 10113 10111 10108 10105 10102 10099 10097 10095 10093 10091 10089 10087 10085 10084 10083 10082 10080 10080
10457 10452 10445 10438 10432 10426 10420 10415 10409 10403 10398 10392 10387 10381 10374 10367 10361 10354 10348 10342 10335 10328 10322 10315 10308 10302 10295 10288 10282 10277 10272 10265 10258 10252 10246 10240 10235 10230 10224 10218 10213 10208 10203 10197 10192 10187 10182 10178 10173 10168 10164 10160 10155 10150 10147 10142 10138 10134 10130 10127 10124 10122 10119 10117 10115 10112 10110 10107 10105 10102 10100 10097 10094 10092 10089 10087 10085 10083 10082 10080 10078 10076 10075 10074 10073 10073
10450 10445 10440 10433 10427 10420 10413 10408 10403 10397 10392 10386 10380 10375 10369 10362 10355 10348 10341 10334 10328 10322 10315 10308 10302 10295 10287 10280 10273 10267 10262 10257 10250 10243 10236 10230 10224 10219 10213 10208 10203 10198 10193 10188 10183 10178 10173 10168 10164 10159 10155 10150 10146 10142 10137 10133 10129 10125 10122 10118 10115 10113 10110 10109 10107 10104 10102 10100 10097 10095 10092 10090 10087 10085 10082 10080 10078 10076 10074 10072 10070 10069 10068 10067 10066 10065
10443 10438 10433 10428 10422 10415 10408 10403 10397 10392 10386 10380 10373 10368 10362 10357 10350 10343 10335 10328 10320 10313 10307 10300 10293 10287 10280 10272 10264 10257 10252 10247 10240 10233 10226 10220 10214 10208 10203 10199 10194 10189 10184 10179 10174 10170 10165 10160 10156 10151 10147 10142 10137 10133 10129 10125 10122 10118 10114 10111 10108 10105 10103 10100 10098 10097 10094 10092 10090 10087 10085 10083 10081 10078 10076 10074 10072 10070 10068 10065 10064 10063 10062 10061 10059 10057
10438 10432 10427 10422 10415 10409 10402 10397 10392 10388 10382 10375 10368 10362 10355 10349 10343 10337 10330 10323 10315 10307 10298 10291 10284 10278 10272 10265 10257 10250 10242 10236 10230 10223 10217 10210 10205 10200 10195 10190 10186 10181 10176 10171 10167 10162 10157 10153 10148 10143 10138 10134 10130 10125 10122 10118 10114 10110 10107 10104 10101 10098 10095 10093 10090 10088 10087 10085 10083 10081 10079 10077 10075 10072 10070 10068 10066 10063 10062 10060 10058 10058 10056 10054 10053 10052
10433 10427 10420 10415 10409 10403 10396 10390 10385 10381 10377 10371 10365 10358 10350 10342 10335 10328 10322 10316 10309 10302 10293 10284 10275 10268 10262 10256 10250 10244 10237 10228 10222 10215 10209 10202 10197 10192 10188 10183 10178 10173 10168 10163 10159 10155 10150 10145 10141 10136 10132 10127 10122 10118 10115 10111 10108 10104 10101 10098 10094 10091 10088 10085 10083 10081 10079 10077 10075 10074 10072 10070 10068 10066 10064 10062 10060 10058 10056 10055 10053 10052 10050 10048 10047 10047
10428 10422 10416 10410 10404 10399 10393 10385 10378 10373 10369 10364 10359 10353 10347 10339 10330 10320 10312 10305 10300 10294 10288 10280 10272 10263 10255 10248 10243 10238 10233 10225 10217 10210 10203 10197 10190 10185 10181 10177 10172 10167 10162 10157 10152 10148 10143 10139 10134 10129 10125 10120 10116 10112 10108 10105 10102 10098 10095 10091 10088 10085 10082 10079 10077 10074 10072 10070 10068 10067 10065 10063 10061 10060 10058 10056 10054 10052 10051 10050 10048 10047 10045 10044 10043 10042
10422 10417 10411 10405 10399 10393 10389 10383 10376 10370 10364 10358 10351 10345 10340 10334 10327 10317 10307 10298 10291 10285 10279 10273 10267 10260 10252 10243 10237 10232 10227 10220 10212 10205 10198 10191 10185 10180 10175 10170 10165 10160 10155 10150 10146 10142 10137 10133 10128 10123 10118 10114 10110 10107 10103 10099 10095 10092 10088 10085 10082 10078 10075 10073 10070 10068 10066 10063 10062 10060 10058 10056 10055 10053 10052 10050 10048 10047 10046 10044 10043 10041 10040 10038 10037 10036
10417 10412 10405 10399 10393 10388 10382 10377 10371 10365 10359 10352 10344 10335 10328 10323 10318 10311 10303 10294 10286 10279 10272 10265 10258 10253 10248 10241 10233 10227 10221 10214 10207 10199 10192 10185 10180 10175 10169 10164 10158 10153 10148 10143 10139 10135 10130 10126 10121 10117 10112 10108 10105 10101 10097 10093 10090 10087 10083 10080 10077 10073 10070 10067 10065 10062 10060 10058 10056 10053 10052 10050 10048 10047 10045 10044 10042 10041 10040 10038 10037 10036 10035 10033 10032 10031
10412 10407 10400 10395 10388 10382 10376 10370 10363 10357 10350 10344 10337 10328 10319 10312 10307 10302 10295 10288 10281 10275 10268 10260 10252 10245 10240 10235 10229 10222 10215 10208 10201 10193 10186 10179 10173 10168 10163 10157 10152 10146 10141 10137 10132 10128 10123 10119 10115 10110 10107 10103 10099 10095 10092 10088 10085 10081 10078 10075 10072 10068 10065 10063 10060 10057 10055 10053 10050 10048 10047 10045 10043 10042 10040 10038 10037 10036 10035 10033 10032 10031 10030 10028 10027 10027
10406 10400 10394 10388 10382 10376 10370 10363 10356 10349 10343 10337 10330 10323 10315 10307 10301 10295 10289 10282 10275 10268 10263 10255 10247 10239 10233 10228 10222 10216 10209 10202 10195 10187 10180 10173 10168 10163 10157 10151 10145 10140 10134 10130 10125 10122 10117 10112 10108 10104 10100 10097 10093 10090 10086 10082 10079 10076 10073 10070 10067 10063 10061 10058 10055 10053 10050 10048 10046 10044 10042 10040 10038 10037 10035 10033 10032 10030 10029 10028 10027 10026 10025 10023 10023 10022
10400 10394 10388 10382 10375 10370 10364 10358 10351 10343 10337 10330 10325 10318 10310 10302 10295 10289 10283 10276 10268 10262 10255 10248 10240 10233 10227 10221 10216 10209 10202 10195 10187 10181 10173 10167 10162 10157 10151 10145 10138 10133 10128 10123 10119 10115 10110 10106 10102 10098 10094 10090 10087 10083 10080 10077 10073 10070 10067 10065 10062 10059 10057 10053 10051 10048 10046 10043 10042 10040 10037 10035 10033 10032 10030 10029 10027 10026 10025 10023 10022 10021 10020 10019 10018 10017
10395 10388 10383 10377 10370 10364 10358 10353 10347 10340 10332 10325 10318 10312 10304 10296 10288 10281 10275 10268 10261 10254 10248 10241 10233 10226 10218 10213 10208 10203 10196 10188 10180 10173 10167 10160 10155 10150 10145 10138 10132 10127 10123 10118 10113 10109 10105 10100 10096 10092 10088 10085 10081 10078 10074 10071 10068 10065 10062 10059 10057 10054 10052 10049 10047 10044 10042 10040 10037 10035 10033 10031 10030 10028 10026 10025 10023 10022 10020 10019 10018 10017 10016 10015 10014 10013
10390 10385 10378 10372 10365 10359 10353 10348 10342 10335 10328 10321 10313 10307 10299 10291 10283 10276 10268 10261 10254 10247 10241 10235 10228 10220 10212 10205 10199 10195 10189 10181 10173 10167 10160 10154 10148 10144 10139 10132 10127 10122 10117 10113 10108 10103 10098 10095 10091 10087 10083 10079 10076 10072 10069 10066 10063 10060 10057 10055 10052 10050 10047 10045 10042 10040 10037 10035 10033 10031 10029 10027 10025 10023 10022 10020 10019 10017 10016 10015 10013 10013 10012 10011 10010 10009
10385 10380 10373 10367 10360 10353 10348 10343 10337 10329 10322 10315 10307 10300 10292 10285 10278 10270 10263 10255 10248 10241 10234 10227 10221 10215 10207 10199 10192 10187 10182 10174 10167 10160 10154 10148 10142 10138 10133 10127 10121 10116 10112 10107 10102 10098 10093 10090 10085 10082 10078 10074 10071 10067 10064 10061 10058 10055 10053 10050 10047 10045 10043 10040 10038 10035 10033 10031 10029 10027 10025 10023 10022 10020 10018 10017 10015 10013 10012 10011 10010 10009 10008 10007 10006 10005
10379 10373 10368 10362 10354 10348 10342 10337 10332 10325 10317 10308 10300 10292 10284 10277 10270 10263 10255 10248 10241 10234 10227 10220 10213 10207 10201 10193 10187 10180 10175 10168 10160 10153 10148 10142 10137 10132 10127 10121 10115 10111 10106 10102 10097 10093 10089 10085 10081 10077 10073 10070 10066 10063 10060 10057 10054 10051 10048 10046 10043 10041 10038 10036 10033 10032 10029 10027 10025 10023 10021 10019 10018 10016 10015 10013 10012 10010 10009 10008 10007 10005 10005 10003 10003 10002
10373 10367 10362 10357 10350 10342 10335 10330 10325 10319 10312 10303 10294 10286 10278 10270 10263 10256 10249 10242 10234 10227 10220 10213 10207 10200 10194 10187 10180 10174 10168 10161 10154 10148 10142 10136 10130 10125 10121 10115 10110 10105 10101 10097 10093 10088 10084 10080 10077 10073 10069 10065 10062 10059 10056 10053 10050 10047 10045 10042 10040 10037 10035 10032 10030 10027 10025 10023 10021 10019 10018 10016 10014 10013 10011 10010 10008 10007 10005 10005 10003 10002 10002 10000 10000 9998
10366 10360 10355 10351 10345 10337 10329 10323 10317 10312 10305 10297 10288 10279 10272 10264 10257 10250 10243 10236 10228 10220 10213 10206 10200 10193 10187 10180 10173 10167 10161 10154 10148 10142 10136 10130 10125 10120 10115 10110 10105 10100 10096 10092 10088 10084 10080 10076 10072 10068 10065 10062 10058 10055 10052 10050 10047 10044 10042 10038 10036 10033 10031 10028 10026 10024 10022 10020 10018 10016 10014 10013 10011 10010 10008 10007 10005 10004 10003 10002 10000 9999 9998 9997 9997 9996
10361 10355 10348 10343 10338 10332 10324 10317 10310 10304 10298 10290 10282 10272 10264 10256 10249 10242 10235 10228 10221 10213 10206 10199 10192 10186 10180 10173 10167 10161 10155 10148 10142 10136 10130 10125 10120 10115 10110 10105 10101 10096 10092 10087 10084 10080 10077 10072 10068 10065 10062 10058 10055 10052 10049 10046 10043 10040 10038 10035 10033 10030 10028 10025 10023 10021 10018 10017 10015 10013 10011 10010 10008 10007 10005 10004 10003 10001 10000 9998 9998 9997 9995 9995 9994 9993
10357 10350 10343 10337 10332 10325 10318 10311 10304 10298 10291 10284 10276 10267 10258 10251 10243 10236 10228 10221 10214 10207 10199 10192 10186 10180 10175 10168 10162 10155 10150 10143 10137 10132 10126 10120 10115 10110 10106 10102 10097 10092 10087 10083 10080 10077 10073 10069 10065 10062 10058 10055 10052 10048 10045 10043 10040 10037 10035 10032 10030 10027 10025 10022 10020 10018 10016 10014 10012 10010 10008 10007 10005 10004 10003 10002 10000 9998 9997 9996 9995 9994 9993 9992 9992 9990
10350 10344 10337 10331 10325 10318 10311 10304 10297 10290 10283 10277 10269 10261 10253 10246 10239 10232 10225 10217 10209 10202 10194 10187 10181 10175 10170 10163 10157 10151 10145 10139 10133 10127 10122 10117 10111 10106 10102 10097 10092 10088 10083 10080 10076 10072 10069 10065 10062 10058 10055 10051 10048 10045 10042 10040 10037 10034 10032 10029 10027 10024 10022 10020 10018 10015 10013 10012 10010 10008 10006 10004 10003 10002 10000 9998 9997 9996 9995 9993 9992 9992 9990 9990 9989 9988
10345 10338 10332 10325 10318 10312 10304 10297 10290 10283 10277 10270 10262 10254 10246 10239 10232 10225 10218 10212 10204 10197 10189 10182 10175 10169 10163 10157 10151 10145 10140 10134 10128 10123 10117 10112 10107 10102 10098 10093 10088 10083 10079 10075 10072 10068 10065 10062 10058 10054 10051 10048 10045 10042 10039 10036 10033 10031 10028 10026 10023 10021 10019 10017 10015 10013 10011 10009 10007 10005 10003 10002 10000 9998 9997 9996 9995 9993 9992 9991 9990 9989 9988 9987 9987 9986
10340 10334 10327 10320 10313 10305 10298 10291 10283 10277 10270 10263 10255 10248 10240 10232 10224 10217 10211 10204 10197 10189 10182 10175 10168 10162 10157 10150 10144 10138 10133 10128 10123 10118 10113 10107 10102 10098 10093 10089 10084 10080 10075 10071 10068 10065 10061 10058 10054 10051 10047 10044 10041 10038 10035 10033 10030 10028 10025 10023 10021 10018 10017 10015 10013 10011 10009 10007 10005 10003 10001 9999 9998 9996 9995 9993 9992 9990 9990 9988 9988 9987 9986 9985 9984 9983
10333 10327 10321 10314 10307 10299 10292 10284 10277 10269 10262 10255 10248 10241 10233 10226 10218 10210 10203 10197 10189 10182 10175 10168 10162 10155 10150 10144 10138 10132 10127 10122 10118 10113 10108 10103 10097 10093 10088 10085 10080 10075 10071 10067 10064 10061 10057 10054 10050 10047 10044 10041 10038 10035 10032 10030 10027 10025 10022 10020 10018 10016 10014 10012 10010 10008 10007 10004 10002 10000 9998 9997 9995 9993 9992 9990 9989 9988 9987 9986 9985 9984 9983 9982 9982 9980
10327 10320 10313 10307 10299 10292 10284 10277 10269 10262 10255 10248 10241 10234 10227 10220 10212 10203 10195 10189 10182 10175 10168 10162 10155 10148 10143 10137 10132 10127 10122 10117 10112 10107 10103 10098 10093 10088 10084 10080 10077 10072 10068 10063 10060 10057 10054 10050 10047 10044 10041 10038 10035 10032 10029 10027 10024 10022 10020 10018 10015 10013 10012 10010 10007 10005 10003 10002 10000 9998 9996 9994 9992 9991 9989 9988 9987 9985 9985 9983 9983 9982 9981 9980 9979 9978
10321 10315 10308 10300 10293 10285 10278 10270 10263 10255 10248 10242 10235 10228 10221 10214 10206 10198 10190 10183 10176 10170 10163 10157 10150 10143 10137 10132 10126 10122 10117 10112 10107 10102 10098 10093 10089 10085 10080 10077 10073 10068 10065 10060 10057 10053 10050 10047 10044 10040 10037 10035 10032 10029 10027 10024 10022 10019 10017 10015 10013 10011 10008 10007 10005 10002 10000 9998 9997 9995 9993 9992 9990 9988 9987 9986 9985 9983 9982 9982 9980 9980 9979 9978 9977 9977
10313 10307 10300 10293 10286 10279 10272 10264 10257 10250 10243 10236 10228 10222 10215 10208 10201 10193 10185 10178 10171 10164 10157 10152 10145 10139 10133 10127 10121 10117 10112 10108 10103 10098 10093 10089 10085 10080 10077 10073 10069 10065 10062 10058 10054 10050 10047 10044 10041 10038 10035 10032 10029 10026 10023 10021 10019 10017 10015 10012 10010 10008 10006 10003 10002 10000 9998 9996 9994 9993 9991 9989 9988 9987 9985 9984 9983 9982 9980 9980 9979 9978 9977 9976 9975 9975
10305 10299 10293 10286 10279 10272 10265 10258 10251 10244 10237 10230 10223 10216 10209 10202 10195 10188 10180 10173 10166 10159 10152 10147 10140 10135 10128 10122 10117 10112 10107 10103 10099 10095 10090 10085 10081 10077 10073 10069 10065 10062 10058 10055 10052 10048 10045 10042 10038 10035 10032 10029 10027 10023 10021 10018 10017 10014 10012 10010 10008 10005 10003 10001 9999 9997 9995 9993 9992 9990 9988 9987 9986 9985 9983 9982 9981 9980 9979 9978 9977 9977 9975 9975 9974 9973
10302 10295 10288 10281 10274 10267 10260 10252 10245 10239 10232 10225 10218 10211 10203 10197 10189 10182 10175 10168 10161 10154 10148 10142 10136 10130 10125 10119 10113 10107 10102 10098 10094 10090 10087 10082 10077 10073 10070 10065 10062 10058 10055 10052 10048 10045 10042 10039 10036 10033 10030 10027 10024 10022 10019 10017 10014 10012 10009 10007 10005 10003 10000 9998 9997 9995 9993 9991 9990 9988 9987 9985 9984 9983 9982 9980 9979 9978 9977 9977 9976 9975 9974 9973 9972 9972
10298 10292 10285 10278 10270 10263 10255 10248 10241 10234 10227 10220 10212 10205 10198 10191 10184 10177 10170 10163 10156 10149 10143 10137 10132 10127 10122 10116 10111 10105 10100 10095 10090 10087 10083 10078 10074 10070 10067 10062 10058 10055 10052 10048 10045 10042 10039 10036 10033 10030 10027 10025 10022 10019 10017 10014 10012 10009 10007 10005 10002 10000 9998 9997 9995 9993 9991 9989 9988 9986 9985 9983 9982 9981 9980 9978 9978 9977 9976 9975 9974 9973 9972 9972 9971 9970
10294 10287 10281 10273 10266 10258 10250 10243 10236 10229 10222 10214 10207 10200 10192 10185 10178 10172 10165 10158 10151 10145 10139 10133 10127 10122 10117 10112 10107 10102 10097 10092 10088 10083 10079 10075 10072 10067 10063 10060 10056 10052 10048 10045 10042 10039 10036 10033 10030 10027 10025 10022 10019 10017 10014 10012 10009 10007 10004 10002 10000 9998 9996 9994 9992 9990 9989 9987 9986 9984 9983 9982 9980 9979 9978 9977 9976 9975 9974 9973 9973 9972 9971 9970 9970 9969
10290 10283 10276 10268 10260 10252 10245 10238 10231 10223 10217 10209 10202 10194 10187 10180 10173 10167 10160 10153 10147 10140 10135 10129 10123 10118 10113 10108 10103 10098 10093 10089 10085 10080 10076 10072 10068 10064 10060 10057 10053 10050 10046 10043 10040 10037 10033 10030 10028 10025 10022 10019 10017 10014 10012 10009 10007 10004 10002 10000 9998 9996 9993 9992 9990 9988 9987 9985 9983 9982 9981 9980 9978 9977 9977 9975 9974 9973 9972 9972 9971 9970 9970 9968 9968 9967
10284 10277 10270 10262 10255 10247 10238 10232 10225 10218 10210 10203 10196 10189 10182 10175 10168 10162 10155 10148 10142 10136 10130 10125 10120 10115 10110 10104 10099 10094 10090 10085 10081 10077 10073 10069 10065 10061 10057 10054 10050 10047 10043 10040 10037 10034 10031 10028 10025 10022 10019 10017 10014 10012 10010 10007 10004 10002 10000 9998 9995 9993 9992 9990 9988 9987 9985 9983 9982 9980 9979 9978 9977 9976 9975 9973 9973 9972 9971 9970 9969 9968 9968 9967 9967 9966
10278 10271 10263 10257 10249 10241 10233 10226 10219 10212 10205 10197 10190 10184 10177 10170 10163 10157 10150 10144 10138 10132 10127 10122 10117 10112 10107 10101 10096 10091 10087 10082 10078 10073 10070 10065 10062 10058 10054 10051 10047 10044 10040 10037 10034 10032 10028 10025 10023 10020 10017 10015 10012 10010 10007 10005 10002 10000 9998 9995 9993 9992 9990 9988 9987 9985 9983 9982 9980 9979 9978 9977 9975 9974 9973 9972 9971 9970 9970 9968 9968 9967 9966 9965 9965 9965
10273 10265 10258 10250 10243 10236 10228 10221 10213 10207 10199 10192 10185 10178 10172 10165 10159 10152 10146 10140 10134 10128 10123 10118 10113 10108 10103 10098 10093 10088 10083 10079 10075 10070 10067 10063 10059 10055 10052 10048 10045 10042 10038 10035 10032 10028 10026 10023 10020 10017 10015 10012 10010 10007 10005 10002 10000 9998 9996 9993 9992 9990 9988 9986 9985 9983 9982 9980 9978 9977 9976 9975 9973 9973 9972 9971 9970 9969 9968 9967 9966 9965 9965 9964 9963 9963
10267 10260 10252 10245 10237 10230 10223 10215 10208 10201 10194 10187 10180 10173 10167 10160 10154 10148 10142 10136 10130 10125 10119 10114 10109 10105 10100 10095 10090 10085 10081 10077 10072 10068 10064 10060 10056 10053 10049 10045 10042 10039 10036 10032 10029 10026 10023 10020 10018 10015 10012 10010 10008 10005 10003 10000 9998 9996 9993 9992 9990 9988 9986 9984 9983 9981 9980 9978 9977 9976 9975 9973 9972 9971 9970 9969 9968 9967 9967 9965 9965 9964 9963 9963 9962 9962
10262 10254 10247 10240 10233 10226 10218 10211 10203 10197 10189 10183 10176 10170 10163 10157 10150 10144 10138 10132 10127 10121 10116 10111 10106 10101 10097 10092 10087 10083 10078 10074 10070 10065 10062 10058 10054 10050 10047 10043 10040 10037 10033 10030 10027 10024 10021 10018 10015 10013 10010 10008 10005 10003 10000 9998 9996 9994 9992 9990 9988 9986 9984 9983 9981 9980 9978 9977 9975 9974 9973 9972 9971 9970 9968 9968 9967 9966 9965 9964 9963 9963 9962 9961 9961 9960
10257 10249 10242 10235 10228 10222 10214 10207 10200 10192 10185 10178 10172 10165 10158 10152 10146 10140 10135 10129 10124 10118 10113 10108 10103 10098 10093 10089 10085 10080 10075 10072 10067 10063 10059 10055 10052 10048 10045 10041 10038 10035 10032 10028 10025 10022 10019 10017 10013 10011 10008 10006 10003 10001 9998 9996 9994 9992 9990 9988 9986 9984 9982 9981 9979 9978 9977 9975 9974 9973 9972 9970 9969 9968 9967 9966 9965 9965 9963 9963 9962 9962 9961 9960 9960 9959
10252 10245 10238 10231 10223 10217 10209 10202 10195 10188 10181 10174 10167 10160 10154 10148 10142 10136 10131 10126 10120 10115 10110 10105 10100 10095 10091 10087 10082 10078 10073 10069 10065 10061 10057 10053 10050 10046 10043 10039 10036 10033 10030 10027 10023 10020 10017 10015 10012 10009 10006 10003 10001 9999 9997 9994 9992 9990 9988 9987 9984 9983 9981 9979 9978 9976 9975 9973 9972 9971 9970 9969 9968 9967 9965 9965 9963 9963 9962 9962 9961 9960 9960 9959 9958 9958
10248 10240 10233 10227 10219 10212 10205 10197 10190 10183 10176 10170 10163 10156 10150 10144 10138 10133 10127 10122 10117 10112 10107 10102 10097 10093 10088 10083 10080 10075 10071 10067 10063 10059 10055 10052 10048 10044 10041 10037 10034 10031 10028 10025 10022 10018 10016 10013 10010 10007 10005 10002 10000 9997 9995 9992 9990 9988 9987 9985 9983 9981 9979 9977 9976 9975 9973 9972 9970 9970 9968 9967 9966 9965 9964 9963 9962 9962 9961 9960 9960 9959 9958 9958 9957 9957
10242 10235 10229 10222 10215 10208 10200 10193 10185 10178 10172 10165 10158 10152 10146 10140 10135 10129 10124 10119 10114 10110 10105 10100 10095 10090 10085 10081 10077 10073 10069 10065 10061 10057 10053 10050 10046 10042 10038 10035 10032 10029 10026 10023 10020 10017 10013 10011 10008 10005 10003 10000 9998 9995 9993 9991 9988 9987 9985 9983 9981 9979 9977 9975 9974 9973 9972 9970 9969 9968 9967 9966 9965 9963 9963 9962 9961 9960 9959 9958 9958 9958 9957 9957 9956 9956
10238 10231 10224 10218 10210 10203 10195 10188 10181 10174 10167 10161 10154 10148 10142 10137 10131 10126 10121 10116 10111 10107 10102 10097 10092 10088 10083 10079 10075 10070 10067 10063 10059 10055 10052 10048 10044 10040 10037 10033 10030 10027 10023 10020 10017 10015 10012 10009 10006 10003 10001 9998 9996 9993 9992 9989 9987 9985 9983 9981 9979 9978 9976 9974 9973 9971 9970 9968 9967 9966 9965 9964 9963 9962 9961 9960 9959 9958 9958 9957 9957 9957 9956 9955 9955 9955
10233 10227 10220 10212 10205 10198 10190 10183 10176 10170 10163 10157 10150 10144 10138 10133 10128 10123 10118 10113 10108 10103 10099 10094 10090 10085 10081 10077 10072 10068 10065 10061 10057 10053 10050 10046 10042 10038 10035 10031 10028 10025 10022 10018 10015 10013 10010 10007 10004 10002 9999 9997 9994 9992 9990 9987 9985 9983 9981 9979 9977 9976 9974 9973 9971 9970 9968 9967 9965 9965 9963 9962 9962 9960 9960 9958 9958 9957 9957 9956 9956 9955 9955 9955 9954 9954
10228 10221 10214 10207 10200 10193 10186 10179 10172 10165 10159 10153 10147 10141 10135 10130 10125 10120 10115 10110 10105 10100 10096 10092 10087 10083 10078 10074 10070 10067 10062 10058 10055 10051 10047 10043 10040 10037 10033 10029 10026 10023 10020 10017 10013 10010 10008 10005 10003 10000 9997 9995 9992 9990 9988 9986 9983 9982 9980 9978 9976 9974 9973 9971 9970 9968 9967 9965 9964 9963 9962 9961 9960 9959 9958 9957 9957 9956 9956 9955 9955 9954 9954 9953 9953 9953
10223 10216 10209 10202 10195 10188 10182 10175 10168 10162 10155 10149 10143 10137 10132 10127 10122 10117 10112 10107 10102 10098 10093 10088 10085 10080 10076 10072 10068 10064 10060 10057 10053 10049 10045 10042 10038 10034 10031 10027 10024 10021 10018 10015 10012 10008 10006 10003 10001 9998 9996 9993 9991 9988 9986 9984 9982 9980 9978 9977 9975 9973 9972 9970 9968 9967 9965 9964 9963 9962 9960 9960 9958 9958 9957 9957 9956 9955 9955 9954 9954 9953 9953 9953 9952 9952
10219 10212 10205 10198 10191 10184 10177 10171 10165 10158 10152 10145 10140 10134 10129 10124 10119 10114 10109 10104 10100 10095 10090 10086 10082 10078 10074 10070 10066 10062 10058 10054 10050 10047 10043 10040 10036 10032 10029 10025 10022 10019 10016 10013 10010 10007 10004 10002 9999 9997 9994 9992 9989 9987 9985 9983 9980 9978 9977 9975 9973 9972 9970 9968 9967 9966 9964 9963 9962 9961 9960 9958 9958 9957 9957 9956 9955 9955 9954 9953 9953 9953 9952 9952 9952 9952
10215 10208 10201 10194 10187 10180 10173 10167 10161 10155 10148 10142 10137 10131 10126 10122 10117 10112 10107 10102 10097 10092 10088 10083 10080 10075 10072 10068 10064 10060 10057 10052 10048 10045 10041 10038 10034 10030 10027 10024 10020 10017 10014 10012 10008 10005 10003 10000 9997 9995 9993 9990 9988 9986 9983 9982 9979 9977 9976 9974 9972 9971 9969 9968 9966 9965 9963 9962 9961 9960 9959 9958 9957 9957 9956 9955 9955 9954 9953 9953 9953 9952 9952 9952 9951 9951
10211 10204 10197 10190 10183 10177 10170 10163 10157 10151 10145 10139 10133 10128 10123 10118 10114 10109 10104 10100 10095 10090 10086 10082 10077 10073 10070 10065 10062 10058 10054 10050 10047 10043 10040 10036 10032 10029 10025 10022 10019 10016 10013 10010 10007 10005 10002 9999 9996 9993 9992 9989 9987 9985 9982 9980 9978 9977 9975 9973 9972 9970 9968 9967 9965 9964 9963 9962 9960 9959 9958 9957 9957 9956 9956 9955 9955 9954 9953 9953 9952 9952 9952 9951 9951 9950
10207 10200 10193 10187 10180 10173 10167 10160 10154 10148 10142 10137 10131 10126 10121 10116 10111 10107 10102 10097 10093 10088 10084 10080 10075 10072 10068 10063 10060 10056 10052 10048 10045 10042 10038 10034 10031 10028 10024 10021 10018 10015 10012 10009 10006 10003 10001 9998 9995 9993 9990 9988 9986 9984 9982 9980 9978 9976 9974 9972 9971 9969 9968 9966 9965 9963 9962 9961 9960 9958 9958 9957 9956 9955 9955 9955 9954 9953 9953 9952 9952 9952 9951 9950 9950 9950